,,,PA_Meas_PMT16A,,PR_Meas_QMR101_102,,RH_Meas_QMH101,,SR_Meas_QMS101,,TA_Meas_QMH101,,GenWind,,GenWind,
date,time,status,PA,status,PR,status,RH,status,SR,status,TA,status,DirAvg,status,SpdAvg,
2008-12-25, 00:00:04,VALID,1008.57,VALID,0,VALID,95.8252,VALID,0,VALID,23.3043,VALID,166,VALID,0.981641,
2008-12-25, 00:01:04,VALID,1008.55,VALID,0,VALID,95.8252,VALID,0,VALID,23.3433,VALID,157,VALID,0.886328,
2008-12-25, 00:02:04,VALID,1008.55,VALID,0.5,VALID,95.8176,VALID,0,VALID,23.3238,VALID,149,VALID,1.13906,
2008-12-25, 00:03:04,VALID,1008.51,VALID,0,VALID,95.8252,VALID,0,VALID,23.3238,VALID,148,VALID,0.883594,
2008-12-25, 00:04:04,VALID,1008.52,VALID,0,VALID,95.8328,VALID,0,VALID,23.3238,VALID,168,VALID,0.804688,
2008-12-25, 00:05:04,VALID,1008.51,VALID,0,VALID,95.8328,VALID,0,VALID,23.3238,VALID,176,VALID,0.692578,
2008-12-25, 00:06:04,VALID,1008.53,VALID,0,VALID,95.8252,VALID,0,VALID,23.3433,VALID,160,VALID,0.396094,
2008-12-25, 00:07:04,VALID,1008.52,VALID,0,VALID,95.81,VALID,0,VALID,23.3238,VALID,167,VALID,0.99375,
2008-12-25, 00:08:04,VALID,1008.52,VALID,0,VALID,95.81,VALID,0,VALID,23.3238,VALID,163,VALID,0.951563,
2008-12-25, 00:09:04,VALID,1008.49,VALID,0,VALID,95.8328,VALID,0,VALID,23.3043,VALID,179,VALID,0.798437,
2008-12-25, 00:10:04,VALID,1008.48,VALID,0,VALID,95.8176,VALID,0.105969,VALID,23.3415,VALID,179,VALID,0.444141,
2008-12-25, 00:11:04,VALID,1008.46,VALID,0,VALID,95.8176,VALID,0,VALID,23.3008,VALID,164,VALID,0.757813,
2008-12-25, 00:12:04,VALID,1008.47,VALID,0.5,VALID,95.8176,VALID,0.105969,VALID,23.322,VALID,184,VALID,0.514844,
2008-12-25, 00:13:04,VALID,1008.48,VALID,0,VALID,95.8252,VALID,0.105969,VALID,23.3026,VALID,179,VALID,0.845312,
2008-12-25, 00:14:04,VALID,1008.44,VALID,0,VALID,95.8252,VALID,0.105969,VALID,23.3026,VALID,156,VALID,0.489453,
2008-12-25, 00:15:04,VALID,1008.44,VALID,0,VALID,95.81,VALID,0.105969,VALID,23.3008,VALID,150,VALID,0.632031,
2008-12-25, 00:16:04,VALID,1008.41,VALID,0,VALID,95.8252,VALID,0.105969,VALID,23.2831,VALID,184,VALID,0.912891,
2008-12-25, 00:17:04,VALID,1008.44,VALID,0,VALID,95.8176,VALID,0.105969,VALID,23.2848,VALID,191,VALID,0.853125,
2008-12-25, 00:18:04,VALID,1008.43,VALID,0,VALID,95.8176,VALID,0.105969,VALID,23.2831,VALID,160,VALID,0.777344,
2008-12-25, 00:19:04,VALID,1008.41,VALID,0,VALID,95.81,VALID,0.105969,VALID,23.2636,VALID,171,VALID,0.279687,
2008-12-25, 00:20:04,VALID,1008.4,VALID,0,VALID,95.8176,VALID,0.105969,VALID,23.2618,VALID,171,VALID,0.641406,
2008-12-25, 00:21:04,VALID,1008.4,VALID,0,VALID,95.8328,VALID,0.105969,VALID,23.2831,VALID,171,VALID,0.445703,
2008-12-25, 00:22:04,VALID,1008.39,VALID,0,VALID,95.8252,VALID,0.105969,VALID,23.3026,VALID,170,VALID,0.230469,
2008-12-25, 00:23:04,VALID,1008.37,VALID,0,VALID,95.8252,VALID,0.105969,VALID,23.3026,VALID,163,VALID,0.603516,
2008-12-25, 00:24:04,VALID,1008.39,VALID,0,VALID,95.7947,VALID,0.105969,VALID,23.2618,VALID,163,VALID,0.271094,
2008-12-25, 00:25:04,VALID,1008.38,VALID,0,VALID,95.8176,VALID,0,VALID,23.3238,VALID,163,VALID,0.289063,
2008-12-25, 00:26:04,VALID,1008.36,VALID,0,VALID,95.81,VALID,0,VALID,23.2848,VALID,158,VALID,0.641797,
2008-12-25, 00:27:04,VALID,1008.33,VALID,0,VALID,95.81,VALID,0,VALID,23.2848,VALID,158,VALID,0.465625,
2008-12-25, 00:28:04,VALID,1008.33,VALID,0.5,VALID,95.8176,VALID,0,VALID,23.2848,VALID,158,VALID,0.460938,
2008-12-25, 00:29:04,VALID,1008.32,VALID,0,VALID,95.81,VALID,0,VALID,23.2848,VALID,129,VALID,0.0785156,
2008-12-25, 00:30:04,VALID,1008.29,VALID,0,VALID,95.8176,VALID,0,VALID,23.2848,VALID,129,VALID,0,
2008-12-25, 00:31:04,VALID,1008.28,VALID,0,VALID,95.8252,VALID,0,VALID,23.3043,VALID,129,VALID,0,
2008-12-25, 00:32:04,VALID,1008.27,VALID,0,VALID,95.81,VALID,0,VALID,23.2848,VALID,129,VALID,0,
2008-12-25, 00:33:04,VALID,1008.24,VALID,0,VALID,95.8023,VALID,0,VALID,23.2848,VALID,129,VALID,0,
2008-12-25, 00:34:04,VALID,1008.2,VALID,0,VALID,95.81,VALID,0,VALID,23.2654,VALID,129,VALID,0,
2008-12-25, 00:35:04,VALID,1008.21,VALID,0,VALID,95.8252,VALID,0,VALID,23.2654,VALID,129,VALID,0,
2008-12-25, 00:36:04,VALID,1008.21,VALID,0,VALID,95.8023,VALID,0,VALID,23.2459,VALID,129,VALID,0,
2008-12-25, 00:37:04,VALID,1008.18,VALID,0,VALID,95.8252,VALID,0,VALID,23.2654,VALID,129,VALID,0,
2008-12-25, 00:38:04,VALID,1008.15,VALID,0,VALID,95.8023,VALID,0,VALID,23.2654,VALID,129,VALID,0,
2008-12-25, 00:39:04,VALID,1008.12,VALID,0,VALID,95.81,VALID,0,VALID,23.2654,VALID,129,VALID,0,
2008-12-25, 00:40:04,VALID,1008.11,VALID,0,VALID,95.8176,VALID,0,VALID,23.2459,VALID,129,VALID,0,
2008-12-25, 00:41:04,VALID,1008.08,VALID,0,VALID,95.7947,VALID,0,VALID,23.2264,VALID,129,VALID,0,
2008-12-25, 00:42:04,VALID,1008.09,VALID,0,VALID,95.7947,VALID,0,VALID,23.2654,VALID,129,VALID,0,
2008-12-25, 00:43:04,VALID,1008.06,VALID,0,VALID,95.8176,VALID,0.105969,VALID,23.2848,VALID,111,VALID,0,
2008-12-25, 00:44:04,VALID,1008.08,VALID,0,VALID,95.81,VALID,0,VALID,23.2654,VALID,111,VALID,0,
2008-12-25, 00:45:04,VALID,1008.05,VALID,0,VALID,95.8023,VALID,0,VALID,23.2866,VALID,104,VALID,0,
2008-12-25, 00:46:04,VALID,1008.04,VALID,0,VALID,95.8176,VALID,0,VALID,23.2654,VALID,71,VALID,0,
2008-12-25, 00:47:04,VALID,1008.07,VALID,0,VALID,95.8176,VALID,0,VALID,23.3043,VALID,39,VALID,0,
2008-12-25, 00:48:04,VALID,1008.07,VALID,0,VALID,95.8023,VALID,0,VALID,23.3043,VALID,39,VALID,0,
2008-12-25, 00:49:04,VALID,1008.08,VALID,0,VALID,95.8023,VALID,0,VALID,23.3043,VALID,39,VALID,0,
2008-12-25, 00:50:04,VALID,1008.05,VALID,0,VALID,95.8023,VALID,0,VALID,23.3238,VALID,39,VALID,0,
2008-12-25, 00:51:04,VALID,1008.05,VALID,0,VALID,95.7871,VALID,0,VALID,23.3238,VALID,39,VALID,0,
2008-12-25, 00:52:04,VALID,1008.04,VALID,0,VALID,95.8023,VALID,0,VALID,23.3238,VALID,39,VALID,0,
2008-12-25, 00:53:04,VALID,1008.05,VALID,0,VALID,95.81,VALID,0,VALID,23.3238,VALID,39,VALID,0,
2008-12-25, 00:54:04,VALID,1008.08,VALID,0,VALID,95.8023,VALID,0,VALID,23.3026,VALID,39,VALID,0,
2008-12-25, 00:55:04,VALID,1008.06,VALID,0,VALID,95.8023,VALID,0,VALID,23.3043,VALID,39,VALID,0,
2008-12-25, 00:56:04,VALID,1008.07,VALID,0,VALID,95.8023,VALID,0,VALID,23.3043,VALID,39,VALID,0,
2008-12-25, 00:57:04,VALID,1008.07,VALID,0,VALID,95.7871,VALID,0,VALID,23.2848,VALID,39,VALID,0,
2008-12-25, 00:58:04,VALID,1008.06,VALID,0,VALID,95.81,VALID,0,VALID,23.2654,VALID,39,VALID,0,
2008-12-25, 00:59:04,VALID,1008.05,VALID,0,VALID,95.8023,VALID,0,VALID,23.2848,VALID,39,VALID,0,
2008-12-25, 01:00:04,VALID,1008.08,VALID,0,VALID,95.8176,VALID,0,VALID,23.3043,VALID,39,VALID,0,
2008-12-25, 01:01:04,VALID,1008.07,VALID,0,VALID,95.8023,VALID,0,VALID,23.3043,VALID,39,VALID,0,
2008-12-25, 01:02:04,VALID,1008.09,VALID,0,VALID,95.8023,VALID,0,VALID,23.3238,VALID,39,VALID,0,
2008-12-25, 01:03:04,VALID,1008.07,VALID,0,VALID,95.8023,VALID,0,VALID,23.3238,VALID,39,VALID,0,
2008-12-25, 01:04:04,VALID,1008.07,VALID,0,VALID,95.7947,VALID,0,VALID,23.3433,VALID,39,VALID,0,
2008-12-25, 01:05:04,VALID,1008.07,VALID,0,VALID,95.8176,VALID,0,VALID,23.3238,VALID,279,VALID,0,
2008-12-25, 01:06:04,VALID,1008.09,VALID,0,VALID,95.8023,VALID,0,VALID,23.2848,VALID,248,VALID,0,
2008-12-25, 01:07:04,VALID,1008.1,VALID,0,VALID,95.7947,VALID,0,VALID,23.2654,VALID,248,VALID,0,
2008-12-25, 01:08:04,VALID,1008.13,VALID,0,VALID,95.7947,VALID,0,VALID,23.2459,VALID,248,VALID,0,
2008-12-25, 01:09:04,VALID,1008.11,VALID,0,VALID,95.8023,VALID,0,VALID,23.2264,VALID,248,VALID,0,
2008-12-25, 01:10:04,VALID,1008.12,VALID,0,VALID,95.8023,VALID,0,VALID,23.1679,VALID,248,VALID,0,
2008-12-25, 01:11:04,VALID,1008.13,VALID,0,VALID,95.8252,VALID,0,VALID,23.1485,VALID,248,VALID,0,
2008-12-25, 01:12:04,VALID,1008.11,VALID,0,VALID,95.8176,VALID,0,VALID,23.129,VALID,248,VALID,0,
2008-12-25, 01:13:04,VALID,1008.13,VALID,0,VALID,95.81,VALID,0,VALID,23.1095,VALID,248,VALID,0,
2008-12-25, 01:14:04,VALID,1008.11,VALID,0,VALID,95.8176,VALID,0,VALID,23.1485,VALID,248,VALID,0,
2008-12-25, 01:15:04,VALID,1008.11,VALID,0,VALID,95.7947,VALID,0,VALID,23.1485,VALID,248,VALID,0,
2008-12-25, 01:16:04,VALID,1008.1,VALID,0,VALID,95.8023,VALID,0,VALID,23.1679,VALID,248,VALID,0,
2008-12-25, 01:17:04,VALID,1008.12,VALID,0,VALID,95.8252,VALID,0,VALID,23.1679,VALID,248,VALID,0,
2008-12-25, 01:18:04,VALID,1008.13,VALID,0,VALID,95.8176,VALID,0,VALID,23.1485,VALID,248,VALID,0,
2008-12-25, 01:19:04,VALID,1008.12,VALID,0,VALID,95.81,VALID,0,VALID,23.129,VALID,228,VALID,0,
2008-12-25, 01:20:04,VALID,1008.13,VALID,0,VALID,95.81,VALID,0,VALID,23.129,VALID,228,VALID,0,
2008-12-25, 01:21:04,VALID,1008.15,VALID,0,VALID,95.8176,VALID,0,VALID,23.1095,VALID,220,VALID,0,
2008-12-25, 01:22:04,VALID,1008.12,VALID,0,VALID,95.8176,VALID,0,VALID,23.09,VALID,220,VALID,0,
2008-12-25, 01:23:04,VALID,1008.11,VALID,0,VALID,95.81,VALID,0,VALID,23.0705,VALID,219,VALID,0,
2008-12-25, 01:24:04,VALID,1008.1,VALID,0,VALID,95.81,VALID,0,VALID,23.0705,VALID,220,VALID,0,
2008-12-25, 01:25:04,VALID,1008.11,VALID,0,VALID,95.81,VALID,0,VALID,23.0298,VALID,219,VALID,0,
2008-12-25, 01:26:04,VALID,1008.13,VALID,0,VALID,95.81,VALID,0,VALID,23.0298,VALID,219,VALID,0,
2008-12-25, 01:27:04,VALID,1008.08,VALID,0,VALID,95.7871,VALID,0,VALID,23.0298,VALID,219,VALID,0,
2008-12-25, 01:28:04,VALID,1008.08,VALID,0,VALID,95.8023,VALID,0,VALID,23.0511,VALID,219,VALID,0,
2008-12-25, 01:29:04,VALID,1008.08,VALID,0,VALID,95.81,VALID,0,VALID,23.0298,VALID,201,VALID,0.191016,
2008-12-25, 01:30:04,VALID,1008.03,VALID,0,VALID,95.7871,VALID,0,VALID,23.0121,VALID,201,VALID,0.655078,
2008-12-25, 01:31:04,VALID,1008.02,VALID,0,VALID,95.7795,VALID,0,VALID,22.9926,VALID,213,VALID,0.696094,
2008-12-25, 01:32:04,VALID,1008.03,VALID,0,VALID,95.7871,VALID,0,VALID,22.9536,VALID,214,VALID,0.485938,
2008-12-25, 01:33:04,VALID,1008.01,VALID,0,VALID,95.7871,VALID,0,VALID,22.9536,VALID,212,VALID,0.567578,
2008-12-25, 01:34:04,VALID,1008.01,VALID,0,VALID,95.7642,VALID,0,VALID,22.9129,VALID,204,VALID,0.664063,
2008-12-25, 01:35:04,VALID,1007.99,VALID,0,VALID,95.7718,VALID,0,VALID,22.9536,VALID,204,VALID,0.342187,
2008-12-25, 01:36:04,VALID,1007.99,VALID,0,VALID,95.7795,VALID,0,VALID,22.9342,VALID,204,VALID,0,
2008-12-25, 01:37:04,VALID,1007.99,VALID,0,VALID,95.749,VALID,0,VALID,22.9536,VALID,204,VALID,0,
2008-12-25, 01:38:04,VALID,1007.97,VALID,0,VALID,95.7642,VALID,0,VALID,22.9731,VALID,216,VALID,0,
2008-12-25, 01:39:04,VALID,1007.98,VALID,0,VALID,95.7642,VALID,0,VALID,22.9324,VALID,217,VALID,0,
2008-12-25, 01:40:04,VALID,1007.97,VALID,0,VALID,95.7337,VALID,0,VALID,22.9536,VALID,217,VALID,0,
2008-12-25, 01:41:04,VALID,1007.96,VALID,0,VALID,95.7566,VALID,0,VALID,22.9342,VALID,239,VALID,0.369141,
2008-12-25, 01:42:04,VALID,1007.97,VALID,0,VALID,95.7413,VALID,0,VALID,22.9342,VALID,237,VALID,0.414844,
2008-12-25, 01:43:04,VALID,1007.95,VALID,0,VALID,95.7337,VALID,0,VALID,22.8952,VALID,249,VALID,0.29375,
2008-12-25, 01:44:04,VALID,1007.98,VALID,0,VALID,95.7413,VALID,0,VALID,22.9554,VALID,288,VALID,0.0386719,
2008-12-25, 01:45:04,VALID,1007.97,VALID,0,VALID,95.7185,VALID,0,VALID,22.8952,VALID,246,VALID,0.407422,
2008-12-25, 01:46:04,VALID,1007.93,VALID,0,VALID,95.7032,VALID,0,VALID,22.8757,VALID,237,VALID,0.431641,
2008-12-25, 01:47:04,VALID,1007.93,VALID,0,VALID,95.7261,VALID,0,VALID,22.8545,VALID,231,VALID,0,
2008-12-25, 01:48:04,VALID,1007.9,VALID,0,VALID,95.7185,VALID,0,VALID,22.8757,VALID,231,VALID,0,
2008-12-25, 01:49:04,VALID,1007.92,VALID,0,VALID,95.7032,VALID,0,VALID,22.8757,VALID,236,VALID,0.488672,
2008-12-25, 01:50:04,VALID,1007.9,VALID,0,VALID,95.6956,VALID,0,VALID,22.8757,VALID,229,VALID,0.542578,
2008-12-25, 01:51:04,VALID,1007.87,VALID,0,VALID,95.6803,VALID,0,VALID,22.8757,VALID,209,VALID,0.693359,
2008-12-25, 01:52:04,VALID,1007.85,VALID,0,VALID,95.6727,VALID,0,VALID,22.8562,VALID,237,VALID,0.825391,
2008-12-25, 01:53:04,VALID,1007.84,VALID,0,VALID,95.6651,VALID,0,VALID,22.8757,VALID,232,VALID,0.564844,
2008-12-25, 01:54:04,VALID,1007.81,VALID,0,VALID,95.6574,VALID,0,VALID,22.8952,VALID,178,VALID,0.467187,
2008-12-25, 01:55:04,VALID,1007.8,VALID,0,VALID,95.6346,VALID,0,VALID,22.8545,VALID,182,VALID,0.566797,
2008-12-25, 01:56:04,VALID,1007.82,VALID,0,VALID,95.6269,VALID,0,VALID,22.8368,VALID,200,VALID,0.724219,
2008-12-25, 01:57:04,VALID,1007.81,VALID,0,VALID,95.6193,VALID,0,VALID,22.8173,VALID,198,VALID,0.757422,
2008-12-25, 01:58:04,VALID,1007.81,VALID,0,VALID,95.6117,VALID,0,VALID,22.8368,VALID,198,VALID,0.489062,
2008-12-25, 01:59:04,VALID,1007.8,VALID,0,VALID,95.5888,VALID,0,VALID,22.7961,VALID,201,VALID,0.785547,
2008-12-25, 02:00:04,VALID,1007.77,VALID,0,VALID,95.5736,VALID,0,VALID,22.8368,VALID,185,VALID,0.7875,
2008-12-25, 02:01:04,VALID,1007.74,VALID,0,VALID,95.5507,VALID,0,VALID,22.8368,VALID,186,VALID,0.525391,
2008-12-25, 02:02:04,VALID,1007.76,VALID,0,VALID,95.5431,VALID,0,VALID,22.8173,VALID,184,VALID,0.708594,
2008-12-25, 02:03:04,VALID,1007.77,VALID,0,VALID,95.5202,VALID,0,VALID,22.7961,VALID,181,VALID,0.641797,
2008-12-25, 02:04:04,VALID,1007.75,VALID,0,VALID,95.5126,VALID,0,VALID,22.8173,VALID,187,VALID,0.727344,
2008-12-25, 02:05:04,VALID,1007.75,VALID,0,VALID,95.4973,VALID,0,VALID,22.8173,VALID,177,VALID,0.508984,
2008-12-25, 02:06:04,VALID,1007.74,VALID,0,VALID,95.4821,VALID,0,VALID,22.8173,VALID,185,VALID,0,
2008-12-25, 02:07:04,VALID,1007.72,VALID,0,VALID,95.4897,VALID,0,VALID,22.8173,VALID,181,VALID,0,
2008-12-25, 02:08:04,VALID,1007.72,VALID,0,VALID,95.4744,VALID,0,VALID,22.8173,VALID,165,VALID,0.635547,
2008-12-25, 02:09:04,VALID,1007.69,VALID,0,VALID,95.4516,VALID,0,VALID,22.7978,VALID,176,VALID,0.652734,
2008-12-25, 02:10:04,VALID,1007.68,VALID,0,VALID,95.4058,VALID,0,VALID,22.7961,VALID,183,VALID,0.880078,
2008-12-25, 02:11:04,VALID,1007.67,VALID,0,VALID,95.3982,VALID,0.105969,VALID,22.7943,VALID,181,VALID,0.507813,
2008-12-25, 02:12:04,VALID,1007.64,VALID,0,VALID,95.3905,VALID,0.105969,VALID,22.7766,VALID,178,VALID,0.478516,
2008-12-25, 02:13:04,VALID,1007.64,VALID,0,VALID,95.36,VALID,0.105969,VALID,22.8155,VALID,173,VALID,0.668359,
2008-12-25, 02:14:04,VALID,1007.61,VALID,0,VALID,95.3524,VALID,0.105969,VALID,22.7766,VALID,189,VALID,0.158203,
2008-12-25, 02:15:04,VALID,1007.59,VALID,0,VALID,95.3372,VALID,0.105969,VALID,22.7766,VALID,198,VALID,0.405078,
2008-12-25, 02:16:04,VALID,1007.58,VALID,0,VALID,95.3143,VALID,0.105969,VALID,22.7554,VALID,197,VALID,0.619922,
2008-12-25, 02:17:04,VALID,1007.55,VALID,0,VALID,95.299,VALID,0.105969,VALID,22.7749,VALID,209,VALID,0.561719,
2008-12-25, 02:18:04,VALID,1007.55,VALID,0,VALID,95.2533,VALID,0,VALID,22.7766,VALID,199,VALID,0.735937,
2008-12-25, 02:19:04,VALID,1007.56,VALID,0,VALID,95.2609,VALID,0.105969,VALID,22.7961,VALID,201,VALID,0.0339844,
2008-12-25, 02:20:04,VALID,1007.56,VALID,0,VALID,95.2304,VALID,0.105969,VALID,22.7961,VALID,192,VALID,0.407422,
2008-12-25, 02:21:04,VALID,1007.55,VALID,0,VALID,95.238,VALID,0.105969,VALID,22.7961,VALID,202,VALID,0.529688,
2008-12-25, 02:22:04,VALID,1007.52,VALID,0,VALID,95.177,VALID,0.105969,VALID,22.7766,VALID,205,VALID,1.06172,
2008-12-25, 02:23:04,VALID,1007.52,VALID,0,VALID,95.1465,VALID,0.105969,VALID,22.7766,VALID,191,VALID,0.967969,
2008-12-25, 02:24:04,VALID,1007.48,VALID,0,VALID,95.0931,VALID,0.211938,VALID,22.7961,VALID,198,VALID,0.954687,
2008-12-25, 02:25:04,VALID,1007.48,VALID,0,VALID,95.0855,VALID,0,VALID,22.8173,VALID,216,VALID,0.583984,
2008-12-25, 02:26:04,VALID,1007.48,VALID,0,VALID,95.0626,VALID,0,VALID,22.7978,VALID,184,VALID,0.633203,
2008-12-25, 02:27:04,VALID,1007.44,VALID,0,VALID,95.0016,VALID,0,VALID,22.7961,VALID,197,VALID,0.982422,
2008-12-25, 02:28:04,VALID,1007.47,VALID,0,VALID,94.9788,VALID,0,VALID,22.7978,VALID,193,VALID,0.771875,
2008-12-25, 02:29:04,VALID,1007.47,VALID,0,VALID,94.9178,VALID,0,VALID,22.7783,VALID,207,VALID,0.966797,
2008-12-25, 02:30:04,VALID,1007.45,VALID,0,VALID,94.9101,VALID,0,VALID,22.7766,VALID,199,VALID,0.655469,
2008-12-25, 02:31:04,VALID,1007.43,VALID,0,VALID,94.9025,VALID,0,VALID,22.7783,VALID,216,VALID,0.588281,
2008-12-25, 02:32:04,VALID,1007.44,VALID,0,VALID,94.8796,VALID,0,VALID,22.8173,VALID,204,VALID,0.110937,
2008-12-25, 02:33:04,VALID,1007.44,VALID,0,VALID,94.8873,VALID,0,VALID,22.7766,VALID,195,VALID,0,
2008-12-25, 02:34:04,VALID,1007.46,VALID,0,VALID,94.8568,VALID,0,VALID,22.7571,VALID,183,VALID,0.661328,
2008-12-25, 02:35:04,VALID,1007.47,VALID,0,VALID,94.8262,VALID,0,VALID,22.7783,VALID,192,VALID,1.0293,
2008-12-25, 02:36:04,VALID,1007.44,VALID,0,VALID,94.8186,VALID,0,VALID,22.7571,VALID,200,VALID,0.640234,
2008-12-25, 02:37:04,VALID,1007.43,VALID,0,VALID,94.7729,VALID,0,VALID,22.7588,VALID,205,VALID,1.33633,
2008-12-25, 02:38:04,VALID,1007.46,VALID,0,VALID,94.7576,VALID,0,VALID,22.7783,VALID,198,VALID,0.467187,
2008-12-25, 02:39:04,VALID,1007.45,VALID,0,VALID,94.7271,VALID,0,VALID,22.7571,VALID,200,VALID,0.601563,
2008-12-25, 02:40:04,VALID,1007.45,VALID,0,VALID,94.6966,VALID,0,VALID,22.7783,VALID,223,VALID,0.877734,
2008-12-25, 02:41:04,VALID,1007.47,VALID,0,VALID,94.6814,VALID,0,VALID,22.7571,VALID,203,VALID,1.10273,
2008-12-25, 02:42:04,VALID,1007.47,VALID,0,VALID,94.6585,VALID,0,VALID,22.7783,VALID,196,VALID,0.450781,
2008-12-25, 02:43:04,VALID,1007.47,VALID,0,VALID,94.628,VALID,0,VALID,22.7783,VALID,193,VALID,1.05,
2008-12-25, 02:44:04,VALID,1007.48,VALID,0,VALID,94.6127,VALID,0,VALID,22.7783,VALID,181,VALID,0.636328,
2008-12-25, 02:45:04,VALID,1007.48,VALID,0,VALID,94.6051,VALID,0,VALID,22.7783,VALID,166,VALID,0.598047,
2008-12-25, 02:46:04,VALID,1007.48,VALID,0,VALID,94.5898,VALID,0,VALID,22.7571,VALID,214,VALID,0.910937,
2008-12-25, 02:47:04,VALID,1007.48,VALID,0,VALID,94.5288,VALID,0,VALID,22.7571,VALID,204,VALID,0.648828,
2008-12-25, 02:48:04,VALID,1007.49,VALID,0,VALID,94.5441,VALID,0,VALID,22.7783,VALID,195,VALID,0.627734,
2008-12-25, 02:49:04,VALID,1007.51,VALID,0,VALID,94.4907,VALID,0,VALID,22.7571,VALID,199,VALID,0.718359,
2008-12-25, 02:50:04,VALID,1007.53,VALID,0,VALID,94.4678,VALID,0,VALID,22.7783,VALID,215,VALID,0.521094,
2008-12-25, 02:51:04,VALID,1007.55,VALID,0,VALID,94.4907,VALID,0,VALID,22.7571,VALID,191,VALID,0.550781,
2008-12-25, 02:52:04,VALID,1007.5,VALID,0,VALID,94.4297,VALID,0,VALID,22.7783,VALID,187,VALID,0.811328,
2008-12-25, 02:53:04,VALID,1007.53,VALID,0,VALID,94.4602,VALID,0.105969,VALID,22.7783,VALID,202,VALID,0.613281,
2008-12-25, 02:54:04,VALID,1007.55,VALID,0,VALID,94.4526,VALID,0,VALID,22.7588,VALID,209,VALID,0.704297,
2008-12-25, 02:55:04,VALID,1007.57,VALID,0,VALID,94.4373,VALID,0,VALID,22.7182,VALID,202,VALID,1.07109,
2008-12-25, 02:56:04,VALID,1007.59,VALID,0,VALID,94.3992,VALID,0,VALID,22.7394,VALID,212,VALID,1.04375,
2008-12-25, 02:57:04,VALID,1007.59,VALID,0,VALID,94.3916,VALID,0,VALID,22.7978,VALID,188,VALID,0.736719,
2008-12-25, 02:58:04,VALID,1007.61,VALID,0,VALID,94.3916,VALID,0,VALID,22.7588,VALID,205,VALID,0.847266,
2008-12-25, 02:59:04,VALID,1007.61,VALID,0,VALID,94.3687,VALID,0,VALID,22.7571,VALID,211,VALID,0.824609,
2008-12-25, 03:00:04,VALID,1007.59,VALID,0,VALID,94.3763,VALID,0,VALID,22.7783,VALID,195,VALID,0.843359,
2008-12-25, 03:01:04,VALID,1007.61,VALID,0,VALID,94.3839,VALID,0,VALID,22.7588,VALID,191,VALID,0.843359,
2008-12-25, 03:02:04,VALID,1007.61,VALID,0,VALID,94.3153,VALID,0,VALID,22.7588,VALID,209,VALID,1.08477,
2008-12-25, 03:03:04,VALID,1007.63,VALID,0,VALID,94.3077,VALID,0,VALID,22.7978,VALID,213,VALID,0.828516,
2008-12-25, 03:04:04,VALID,1007.63,VALID,0,VALID,94.3001,VALID,0,VALID,22.7783,VALID,201,VALID,0.660156,
2008-12-25, 03:05:04,VALID,1007.64,VALID,0,VALID,94.3306,VALID,0,VALID,22.7783,VALID,222,VALID,0.651172,
2008-12-25, 03:06:04,VALID,1007.66,VALID,0,VALID,94.3077,VALID,0,VALID,22.7783,VALID,220,VALID,1.36445,
2008-12-25, 03:07:04,VALID,1007.64,VALID,0,VALID,94.3077,VALID,0,VALID,22.7783,VALID,222,VALID,1.1543,
2008-12-25, 03:08:04,VALID,1007.66,VALID,0,VALID,94.2924,VALID,0,VALID,22.7783,VALID,201,VALID,0.637109,
2008-12-25, 03:09:04,VALID,1007.66,VALID,0,VALID,94.2848,VALID,0,VALID,22.7783,VALID,205,VALID,0.857031,
2008-12-25, 03:10:04,VALID,1007.69,VALID,0,VALID,94.2696,VALID,0,VALID,22.7783,VALID,207,VALID,1.18945,
2008-12-25, 03:11:04,VALID,1007.69,VALID,0,VALID,94.2543,VALID,0,VALID,22.7783,VALID,202,VALID,1.04023,
2008-12-25, 03:12:04,VALID,1007.68,VALID,0,VALID,94.2543,VALID,0,VALID,22.7978,VALID,214,VALID,0.869531,
2008-12-25, 03:13:04,VALID,1007.7,VALID,0,VALID,94.2467,VALID,0,VALID,22.7783,VALID,207,VALID,0.832812,
2008-12-25, 03:14:04,VALID,1007.69,VALID,0,VALID,94.2391,VALID,0,VALID,22.7783,VALID,198,VALID,1.53086,
2008-12-25, 03:15:04,VALID,1007.68,VALID,0,VALID,94.2162,VALID,0,VALID,22.7978,VALID,182,VALID,1.08867,
2008-12-25, 03:16:04,VALID,1007.67,VALID,0,VALID,94.2391,VALID,0,VALID,22.8173,VALID,189,VALID,0.838672,
2008-12-25, 03:17:04,VALID,1007.66,VALID,0,VALID,94.2924,VALID,0,VALID,22.8173,VALID,186,VALID,0.73125,
2008-12-25, 03:18:04,VALID,1007.68,VALID,0,VALID,94.3382,VALID,0,VALID,22.8173,VALID,203,VALID,0.930469,
2008-12-25, 03:19:04,VALID,1007.71,VALID,0,VALID,94.3306,VALID,0,VALID,22.7978,VALID,215,VALID,1.07227,
2008-12-25, 03:20:04,VALID,1007.73,VALID,0,VALID,94.3534,VALID,0,VALID,22.7961,VALID,217,VALID,0.827344,
2008-12-25, 03:21:04,VALID,1007.74,VALID,0,VALID,94.3839,VALID,0,VALID,22.8173,VALID,220,VALID,0.621094,
2008-12-25, 03:22:04,VALID,1007.76,VALID,0,VALID,94.3992,VALID,0,VALID,22.8173,VALID,217,VALID,0.812891,
2008-12-25, 03:23:04,VALID,1007.79,VALID,0,VALID,94.4297,VALID,0,VALID,22.7961,VALID,207,VALID,0.9375,
2008-12-25, 03:24:04,VALID,1007.81,VALID,0,VALID,94.445,VALID,0,VALID,22.8155,VALID,247,VALID,0.347266,
2008-12-25, 03:25:04,VALID,1007.83,VALID,0,VALID,94.5441,VALID,0,VALID,22.8757,VALID,243,VALID,0.734375,
2008-12-25, 03:26:04,VALID,1007.8,VALID,0,VALID,94.5898,VALID,0,VALID,22.8952,VALID,270,VALID,0,
2008-12-25, 03:27:04,VALID,1007.83,VALID,0,VALID,94.6127,VALID,0,VALID,22.8155,VALID,303,VALID,0.567969,
2008-12-25, 03:28:04,VALID,1007.84,VALID,0,VALID,94.6508,VALID,0,VALID,22.835,VALID,247,VALID,0.339844,
2008-12-25, 03:29:04,VALID,1007.84,VALID,0,VALID,94.6585,VALID,0,VALID,22.8155,VALID,226,VALID,0.813281,
2008-12-25, 03:30:04,VALID,1007.82,VALID,0,VALID,94.628,VALID,0.105969,VALID,22.8368,VALID,249,VALID,0.698828,
2008-12-25, 03:31:04,VALID,1007.82,VALID,0,VALID,94.6508,VALID,0,VALID,22.8562,VALID,240,VALID,0.508984,
2008-12-25, 03:32:04,VALID,1007.8,VALID,0,VALID,94.6585,VALID,0,VALID,22.8368,VALID,224,VALID,0.0765625,
2008-12-25, 03:33:04,VALID,1007.79,VALID,0,VALID,94.689,VALID,0,VALID,22.8562,VALID,244,VALID,0.216797,
2008-12-25, 03:34:04,VALID,1007.78,VALID,0,VALID,94.6966,VALID,0,VALID,22.8562,VALID,172,VALID,0.475391,
2008-12-25, 03:35:04,VALID,1007.76,VALID,0,VALID,94.7271,VALID,0,VALID,22.858,VALID,165,VALID,0.202734,
2008-12-25, 03:36:04,VALID,1007.76,VALID,0,VALID,94.7347,VALID,0,VALID,22.8368,VALID,166,VALID,0.670703,
2008-12-25, 03:37:04,VALID,1007.77,VALID,0,VALID,94.7652,VALID,0,VALID,22.8368,VALID,151,VALID,0.534375,
2008-12-25, 03:38:04,VALID,1007.82,VALID,0,VALID,94.7652,VALID,0,VALID,22.8562,VALID,153,VALID,0.203906,
2008-12-25, 03:39:04,VALID,1007.79,VALID,0,VALID,94.8034,VALID,0,VALID,22.8562,VALID,170,VALID,0.612109,
2008-12-25, 03:40:04,VALID,1007.8,VALID,0,VALID,94.811,VALID,0,VALID,22.8952,VALID,175,VALID,0.99375,
2008-12-25, 03:41:04,VALID,1007.78,VALID,0,VALID,94.7957,VALID,0,VALID,22.8562,VALID,153,VALID,0.598828,
2008-12-25, 03:42:04,VALID,1007.81,VALID,0,VALID,94.7881,VALID,0,VALID,22.8562,VALID,156,VALID,0.692187,
2008-12-25, 03:43:04,VALID,1007.77,VALID,0,VALID,94.7729,VALID,0,VALID,22.8562,VALID,160,VALID,0.869531,
2008-12-25, 03:44:04,VALID,1007.75,VALID,0,VALID,94.7576,VALID,0,VALID,22.8952,VALID,147,VALID,0.425,
2008-12-25, 03:45:04,VALID,1007.75,VALID,0,VALID,94.7652,VALID,0,VALID,22.8545,VALID,134,VALID,0.200781,
2008-12-25, 03:46:04,VALID,1007.75,VALID,0,VALID,94.7576,VALID,0,VALID,22.8952,VALID,145,VALID,0,
2008-12-25, 03:47:04,VALID,1007.76,VALID,0,VALID,94.7424,VALID,0,VALID,22.8757,VALID,154,VALID,0,